Location: Grand Moustoir
(47.8355°N, 3.3120°W)
Time: 16:25:47
(UTC+00:00)

NOAA 6 - Pass Details

Date: 20 January 2020
Orbit: 773 x 786 km, 98.7° (Epoch: 20 February)

Event Time Altitude Azimuth Distance (km) Brightness Sun altitude
Rises 05:51:45 0° 16° (NNE) 3,288 7.4 -20.2°
Reaches altitude 10° 05:54:06 10° 18° (NNE) 2,356 6.6 -19.8°
Maximum altitude 05:59:18 72° 103° (ESE) 830 4.3 -18.9°
Drops below altitude 10° 06:04:28 10° 188° (S) 2,341 6.5 -18.1°
Sets 06:06:47 0° 190° (S) 3,265 7.3 -17.7°
